Time,TemperatureF,DewpointF,PressureIn,WindDirection,WindDirectionDegrees,WindSpeedMPH,WindSpeedGustMPH,Humidity,HourlyPrecipIn,Conditions,Clouds,dailyrainin,SoftwareType,DateUTC
2013-06-10 00:00:00,59.8,47.1,29.94,WSW,248,3.0,13.0,63,0.00,,,0.00,Weather View 32 v70,2013-06-10 07:00:00,
2013-06-10 00:05:00,59.5,46.9,29.94,WSW,254,3.0,13.0,63,0.00,,,0.00,Weather View 32 v70,2013-06-10 07:05:00,
2013-06-10 00:10:00,59.3,47.1,29.94,West,264,4.0,13.0,64,0.00,,,0.00,Weather View 32 v70,2013-06-10 07:10:00,
2013-06-10 00:15:00,59.0,46.8,29.94,WNW,287,3.0,13.0,64,0.00,,,0.00,Weather View 32 v70,2013-06-10 07:15:00,
2013-06-10 00:20:00,58.9,46.7,29.94,West,265,4.0,14.0,64,0.00,,,0.00,Weather View 32 v70,2013-06-10 07:20:00,
2013-06-10 00:25:00,58.7,46.9,29.94,WSW,246,10.0,14.0,65,0.00,,,0.00,Weather View 32 v70,2013-06-10 07:25:00,
2013-06-10 00:30:00,58.4,46.7,29.94,West,276,4.0,15.0,65,0.00,,,0.00,Weather View 32 v70,2013-06-10 07:30:00,
2013-06-10 00:34:00,58.1,46.8,29.94,West,279,8.0,15.0,66,0.00,,,0.00,Weather View 32 v70,2013-06-10 07:34:00,
2013-06-10 00:39:00,57.8,46.5,29.94,West,264,6.0,15.0,66,0.00,,,0.00,Weather View 32 v70,2013-06-10 07:39:00,
2013-06-10 00:44:00,57.6,46.3,29.94,WNW,282,7.0,15.0,66,0.00,,,0.00,Weather View 32 v70,2013-06-10 07:44:00,
2013-06-10 00:49:00,57.3,46.4,29.94,WNW,289,5.0,18.0,67,0.00,,,0.00,Weather View 32 v70,2013-06-10 07:49:00,
2013-06-10 00:54:00,57.2,46.3,29.93,West,259,10.0,18.0,67,0.00,,,0.00,Weather View 32 v70,2013-06-10 07:54:00,
2013-06-10 00:59:00,56.9,46.0,29.93,WNW,294,5.0,18.0,67,0.00,,,0.00,Weather View 32 v70,2013-06-10 07:59:00,
2013-06-10 01:04:00,56.9,46.0,29.93,West,275,9.0,18.0,67,0.00,,,0.00,Weather View 32 v70,2013-06-10 08:04:00,
2013-06-10 01:09:00,56.6,46.1,29.93,WNW,282,5.0,18.0,68,0.00,,,0.00,Weather View 32 v70,2013-06-10 08:09:00,
2013-06-10 01:15:00,56.5,46.0,29.93,West,265,4.0,19.0,68,0.00,,,0.00,Weather View 32 v70,2013-06-10 08:15:00,
2013-06-10 01:20:00,56.3,45.9,29.93,West,272,15.0,21.0,68,0.00,,,0.00,Weather View 32 v70,2013-06-10 08:20:00,
2013-06-10 01:25:00,56.2,45.8,29.93,WSW,242,2.0,21.0,68,0.00,,,0.00,Weather View 32 v70,2013-06-10 08:25:00,
2013-06-10 01:30:00,56.0,45.6,29.93,WNW,286,6.0,21.0,68,0.00,,,0.00,Weather View 32 v70,2013-06-10 08:30:00,
2013-06-10 01:35:00,55.7,45.3,29.93,WNW,301,5.0,21.0,68,0.00,,,0.00,Weather View 32 v70,2013-06-10 08:35:00,
2013-06-10 01:40:00,55.6,45.6,29.92,West,273,15.0,21.0,69,0.00,,,0.00,Weather View 32 v70,2013-06-10 08:40:00,
2013-06-10 01:45:00,55.6,45.6,29.93,West,273,4.0,22.0,69,0.00,,,0.00,Weather View 32 v70,2013-06-10 08:45:00,
2013-06-10 01:50:00,55.4,45.4,29.92,West,275,11.0,22.0,69,0.00,,,0.00,Weather View 32 v70,2013-06-10 08:50:00,
2013-06-10 01:55:00,55.1,45.1,29.93,WNW,300,8.0,22.0,69,0.00,,,0.00,Weather View 32 v70,2013-06-10 08:55:00,
2013-06-10 02:00:00,55.1,45.1,29.92,West,267,10.0,22.0,69,0.00,,,0.00,Weather View 32 v70,2013-06-10 09:00:00,
2013-06-10 02:05:00,55.0,45.0,29.93,West,267,3.0,22.0,69,0.00,,,0.00,Weather View 32 v70,2013-06-10 09:05:00,
2013-06-10 02:10:00,54.8,45.2,29.93,West,266,4.0,22.0,70,0.00,,,0.00,Weather View 32 v70,2013-06-10 09:10:00,
2013-06-10 02:15:00,54.7,45.1,29.93,West,267,16.0,22.0,70,0.00,,,0.00,Weather View 32 v70,2013-06-10 09:15:00,
2013-06-10 02:20:00,54.5,44.9,29.93,WNW,290,10.0,22.0,70,0.00,,,0.00,Weather View 32 v70,2013-06-10 09:20:00,
2013-06-10 02:25:00,54.4,44.8,29.93,West,279,2.0,22.0,70,0.00,,,0.00,Weather View 32 v70,2013-06-10 09:25:00,
2013-06-10 02:30:00,54.2,44.6,29.93,WSW,254,2.0,22.0,70,0.00,,,0.00,Weather View 32 v70,2013-06-10 09:30:00,
2013-06-10 02:35:00,54.2,45.0,29.93,SSW,207,6.0,22.0,71,0.00,,,0.00,Weather View 32 v70,2013-06-10 09:35:00,
2013-06-10 02:40:00,54.1,44.9,29.93,West,265,1.0,22.0,71,0.00,,,0.00,Weather View 32 v70,2013-06-10 09:40:00,
2013-06-10 02:45:00,53.9,44.7,29.93,WNW,284,2.0,20.0,71,0.00,,,0.00,Weather View 32 v70,2013-06-10 09:45:00,
2013-06-10 02:50:00,54.1,44.9,29.93,SW,234,1.0,20.0,71,0.00,,,0.00,Weather View 32 v70,2013-06-10 09:50:00,
2013-06-10 02:55:00,53.9,44.7,29.93,SSW,203,2.0,20.0,71,0.00,,,0.00,Weather View 32 v70,2013-06-10 09:55:00,
2013-06-10 03:00:00,53.8,44.6,29.93,WSW,252,1.0,19.0,71,0.00,,,0.00,Weather View 32 v70,2013-06-10 10:00:00,
2013-06-10 03:05:00,53.6,44.4,29.93,SE,139,5.0,18.0,71,0.00,,,0.00,Weather View 32 v70,2013-06-10 10:05:00,
2013-06-10 03:10:00,53.5,44.7,29.93,West,273,0.0,18.0,72,0.00,,,0.00,Weather View 32 v70,2013-06-10 10:10:00,
2013-06-10 03:15:00,53.3,44.5,29.93,West,273,1.0,17.0,72,0.00,,,0.00,Weather View 32 v70,2013-06-10 10:15:00,
2013-06-10 03:20:00,53.2,44.4,29.94,SW,232,4.0,17.0,72,0.00,,,0.00,Weather View 32 v70,2013-06-10 10:20:00,
2013-06-10 03:25:00,53.2,44.4,29.93,SW,224,1.0,17.0,72,0.00,,,0.00,Weather View 32 v70,2013-06-10 10:25:00,
2013-06-10 03:30:00,53.1,44.7,29.94,WSW,252,2.0,16.0,73,0.00,,,0.00,Weather View 32 v70,2013-06-10 10:30:00,
2013-06-10 03:35:00,53.1,44.7,29.93,SSW,211,3.0,16.0,73,0.00,,,0.00,Weather View 32 v70,2013-06-10 10:35:00,
2013-06-10 03:40:00,52.9,44.5,29.94,WSW,252,2.0,16.0,73,0.00,,,0.00,Weather View 32 v70,2013-06-10 10:40:00,
2013-06-10 03:45:00,52.8,44.4,29.94,WNW,294,3.0,16.0,73,0.00,,,0.00,Weather View 32 v70,2013-06-10 10:45:00,
2013-06-10 03:50:00,52.9,44.5,29.94,West,277,3.0,13.0,73,0.00,,,0.00,Weather View 32 v70,2013-06-10 10:50:00,
2013-06-10 03:55:00,52.9,44.5,29.94,WNW,296,6.0,24.0,73,0.00,,,0.00,Weather View 32 v70,2013-06-10 10:55:00,
2013-06-10 04:00:00,52.9,44.5,29.94,WNW,300,3.0,24.0,73,0.00,,,0.00,Weather View 32 v70,2013-06-10 11:00:00,
2013-06-10 04:05:00,52.8,44.4,29.93,WNW,283,2.0,24.0,73,0.00,,,0.00,Weather View 32 v70,2013-06-10 11:05:00,
2013-06-10 04:10:00,52.6,44.2,29.93,West,277,4.0,24.0,73,0.00,,,0.00,Weather View 32 v70,2013-06-10 11:10:00,
2013-06-10 04:15:00,52.3,43.9,29.93,WNW,299,13.0,24.0,73,0.00,,,0.00,Weather View 32 v70,2013-06-10 11:15:00,
2013-06-10 04:20:00,52.2,44.1,29.93,WNW,298,8.0,24.0,74,0.00,,,0.00,Weather View 32 v70,2013-06-10 11:20:00,
2013-06-10 04:25:00,52.2,44.1,29.93,NW,313,5.0,24.0,74,0.00,,,0.00,Weather View 32 v70,2013-06-10 11:25:00,
2013-06-10 04:30:00,51.9,44.2,29.93,WNW,302,7.0,24.0,75,0.00,,,0.00,Weather View 32 v70,2013-06-10 11:30:00,
2013-06-10 04:35:00,51.7,44.0,29.92,West,281,7.0,24.0,75,0.00,,,0.00,Weather View 32 v70,2013-06-10 11:35:00,
2013-06-10 04:40:00,51.6,43.9,29.92,West,271,7.0,24.0,75,0.00,,,0.00,Weather View 32 v70,2013-06-10 11:40:00,
2013-06-10 04:44:00,51.6,43.9,29.92,West,281,5.0,24.0,75,0.00,,,0.00,Weather View 32 v70,2013-06-10 11:44:00,
2013-06-10 04:49:00,51.4,43.7,29.91,West,273,3.0,24.0,75,0.00,,,0.00,Weather View 32 v70,2013-06-10 11:49:00,
2013-06-10 04:54:00,51.4,43.7,29.91,West,271,7.0,22.0,75,0.00,,,0.00,Weather View 32 v70,2013-06-10 11:54:00,
2013-06-10 05:00:00,51.3,44.0,29.91,North,0,18.0,24.0,76,0.00,,,0.00,Weather View 32 v70,2013-06-10 12:00:00,
2013-06-10 05:05:00,51.3,44.0,29.91,NW,317,11.0,24.0,76,0.00,,,0.00,Weather View 32 v70,2013-06-10 12:05:00,
2013-06-10 05:10:00,51.1,43.8,29.91,West,279,1.0,24.0,76,0.00,,,0.00,Weather View 32 v70,2013-06-10 12:10:00,
2013-06-10 05:15:00,51.1,43.8,29.91,WNW,284,8.0,24.0,76,0.00,,,0.00,Weather View 32 v70,2013-06-10 12:15:00,
2013-06-10 05:20:00,51.1,43.8,29.91,West,259,3.0,24.0,76,0.00,,,0.00,Weather View 32 v70,2013-06-10 12:20:00,
2013-06-10 05:24:00,51.1,43.8,29.91,WSW,257,10.0,24.0,76,0.00,,,0.00,Weather View 32 v70,2013-06-10 12:24:00,
2013-06-10 05:29:00,51.0,43.7,29.92,WNW,292,6.0,24.0,76,0.00,,,0.00,Weather View 32 v70,2013-06-10 12:29:00,
2013-06-10 05:34:00,51.1,43.8,29.92,WNW,298,4.0,24.0,76,0.00,,,0.00,Weather View 32 v70,2013-06-10 12:34:00,
2013-06-10 05:39:00,51.1,43.8,29.92,West,280,4.0,24.0,76,0.00,,,0.00,Weather View 32 v70,2013-06-10 12:39:00,
2013-06-10 05:44:00,51.1,43.8,29.92,NW,313,4.0,24.0,76,0.00,,,0.00,Weather View 32 v70,2013-06-10 12:44:00,
2013-06-10 05:50:00,51.1,43.8,29.92,SW,232,5.0,24.0,76,0.00,,,0.00,Weather View 32 v70,2013-06-10 12:50:00,
2013-06-10 05:55:00,51.1,43.8,29.92,WSW,246,13.0,24.0,76,0.00,,,0.00,Weather View 32 v70,2013-06-10 12:55:00,
2013-06-10 06:00:00,51.1,43.8,29.92,West,273,3.0,20.0,76,0.00,,,0.00,Weather View 32 v70,2013-06-10 13:00:00,
2013-06-10 06:05:00,51.1,43.8,29.92,NW,312,8.0,20.0,76,0.00,,,0.00,Weather View 32 v70,2013-06-10 13:05:00,
2013-06-10 06:10:00,51.3,44.0,29.92,West,274,7.0,20.0,76,0.00,,,0.00,Weather View 32 v70,2013-06-10 13:10:00,
2013-06-10 06:15:00,51.4,43.7,29.92,West,273,6.0,20.0,75,0.00,,,0.00,Weather View 32 v70,2013-06-10 13:15:00,
2013-06-10 06:20:00,51.6,43.9,29.92,WNW,302,10.0,20.0,75,0.00,,,0.00,Weather View 32 v70,2013-06-10 13:20:00,
2013-06-10 06:24:00,51.7,44.0,29.92,WSW,256,12.0,20.0,75,0.00,,,0.00,Weather View 32 v70,2013-06-10 13:24:00,
2013-06-10 06:29:00,51.9,43.9,29.92,WSW,257,8.0,20.0,74,0.00,,,0.00,Weather View 32 v70,2013-06-10 13:29:00,
2013-06-10 06:34:00,52.0,44.0,29.92,WNW,299,5.0,20.0,74,0.00,,,0.00,Weather View 32 v70,2013-06-10 13:34:00,
2013-06-10 06:39:00,52.0,44.0,29.92,North,0,13.0,20.0,74,0.00,,,0.00,Weather View 32 v70,2013-06-10 13:39:00,
2013-06-10 06:44:00,52.2,43.8,29.92,WNW,296,4.0,19.0,73,0.00,,,0.00,Weather View 32 v70,2013-06-10 13:44:00,
2013-06-10 06:49:00,52.2,43.8,29.92,NW,311,10.0,19.0,73,0.00,,,0.00,Weather View 32 v70,2013-06-10 13:49:00,
2013-06-10 06:54:00,52.3,43.9,29.92,West,280,9.0,19.0,73,0.00,,,0.00,Weather View 32 v70,2013-06-10 13:54:00,
2013-06-10 06:59:00,52.5,44.1,29.92,West,265,10.0,20.0,73,0.00,,,0.00,Weather View 32 v70,2013-06-10 13:59:00,
2013-06-10 07:04:00,52.6,44.2,29.92,West,273,2.0,20.0,73,0.00,,,0.00,Weather View 32 v70,2013-06-10 14:04:00,
2013-06-10 07:09:00,52.6,44.2,29.92,WSW,240,10.0,20.0,73,0.00,,,0.00,Weather View 32 v70,2013-06-10 14:09:00,
2013-06-10 07:14:00,52.8,44.0,29.93,WNW,283,3.0,20.0,72,0.00,,,0.00,Weather View 32 v70,2013-06-10 14:14:00,
2013-06-10 07:19:00,53.1,44.3,29.93,WNW,289,3.0,20.0,72,0.00,,,0.00,Weather View 32 v70,2013-06-10 14:19:00,
2013-06-10 07:24:00,53.2,44.0,29.93,WNW,294,6.0,20.0,71,0.00,,,0.00,Weather View 32 v70,2013-06-10 14:24:00,
2013-06-10 07:29:00,53.2,44.4,29.93,West,265,4.0,20.0,72,0.00,,,0.00,Weather View 32 v70,2013-06-10 14:29:00,
2013-06-10 07:34:00,53.2,44.4,29.93,WNW,297,3.0,20.0,72,0.00,,,0.00,Weather View 32 v70,2013-06-10 14:34:00,
2013-06-10 07:39:00,53.5,44.7,29.93,WNW,296,8.0,20.0,72,0.00,,,0.00,Weather View 32 v70,2013-06-10 14:39:00,
2013-06-10 07:44:00,53.8,45.0,29.93,West,273,3.0,20.0,72,0.00,,,0.00,Weather View 32 v70,2013-06-10 14:44:00,
2013-06-10 07:49:00,54.1,44.5,29.93,WSW,244,5.0,20.0,70,0.00,,,0.00,Weather View 32 v70,2013-06-10 14:49:00,
2013-06-10 07:54:00,54.1,44.5,29.93,WNW,286,0.0,20.0,70,0.00,,,0.00,Weather View 32 v70,2013-06-10 14:54:00,
2013-06-10 07:59:00,54.4,44.8,29.93,WNW,296,0.0,16.0,70,0.00,,,0.00,Weather View 32 v70,2013-06-10 14:59:00,
2013-06-10 08:04:00,54.7,44.7,29.93,WNW,292,9.0,16.0,69,0.00,,,0.00,Weather View 32 v70,2013-06-10 15:04:00,
2013-06-10 08:09:00,54.7,44.7,29.93,WSW,244,12.0,16.0,69,0.00,,,0.00,Weather View 32 v70,2013-06-10 15:09:00,
2013-06-10 08:14:00,55.1,45.1,29.93,WNW,303,3.0,16.0,69,0.00,,,0.00,Weather View 32 v70,2013-06-10 15:14:00,
2013-06-10 08:19:00,55.4,44.6,29.93,NW,311,3.0,16.0,67,0.00,,,0.00,Weather View 32 v70,2013-06-10 15:19:00,
2013-06-10 08:24:00,55.7,44.9,29.93,NW,305,2.0,16.0,67,0.00,,,0.00,Weather View 32 v70,2013-06-10 15:24:00,
2013-06-10 08:29:00,56.0,44.8,29.93,West,272,1.0,16.0,66,0.00,,,0.00,Weather View 32 v70,2013-06-10 15:29:00,
2013-06-10 08:34:00,56.0,44.8,29.93,WNW,300,4.0,16.0,66,0.00,,,0.00,Weather View 32 v70,2013-06-10 15:34:00,
2013-06-10 08:39:00,56.2,45.0,29.93,West,260,6.0,15.0,66,0.00,,,0.00,Weather View 32 v70,2013-06-10 15:39:00,
2013-06-10 08:44:00,56.6,45.3,29.93,WNW,287,6.0,15.0,66,0.00,,,0.00,Weather View 32 v70,2013-06-10 15:44:00,
2013-06-10 08:49:00,56.9,45.2,29.93,WSW,256,3.0,15.0,65,0.00,,,0.00,Weather View 32 v70,2013-06-10 15:49:00,
2013-06-10 08:54:00,57.0,44.5,29.93,West,277,3.0,15.0,63,0.00,,,0.00,Weather View 32 v70,2013-06-10 15:54:00,
2013-06-10 08:59:00,57.3,45.2,29.92,West,268,6.0,15.0,64,0.00,,,0.00,Weather View 32 v70,2013-06-10 15:59:00,
2013-06-10 09:04:00,57.2,45.1,29.93,WNW,295,5.0,15.0,64,0.00,,,0.00,Weather View 32 v70,2013-06-10 16:04:00,
2013-06-10 09:09:00,57.3,44.8,29.92,West,269,8.0,15.0,63,0.00,,,0.00,Weather View 32 v70,2013-06-10 16:09:00,
2013-06-10 09:14:00,57.5,44.6,29.92,WNW,286,4.0,15.0,62,0.00,,,0.00,Weather View 32 v70,2013-06-10 16:14:00,
2013-06-10 09:19:00,57.5,44.6,29.92,West,273,7.0,15.0,62,0.00,,,0.00,Weather View 32 v70,2013-06-10 16:19:00,
2013-06-10 09:24:00,57.8,44.8,29.92,West,267,6.0,15.0,62,0.00,,,0.00,Weather View 32 v70,2013-06-10 16:24:00,
2013-06-10 09:29:00,58.0,44.6,29.91,West,276,6.0,15.0,61,0.00,,,0.00,Weather View 32 v70,2013-06-10 16:29:00,
2013-06-10 09:34:00,58.4,45.4,29.92,NW,311,3.0,19.0,62,0.00,,,0.00,Weather View 32 v70,2013-06-10 16:34:00,
2013-06-10 09:39:00,58.9,45.0,29.92,WNW,288,1.0,19.0,60,0.00,,,0.00,Weather View 32 v70,2013-06-10 16:39:00,
2013-06-10 09:44:00,59.3,45.4,29.91,WSW,250,3.0,19.0,60,0.00,,,0.00,Weather View 32 v70,2013-06-10 16:44:00,
2013-06-10 09:49:00,59.8,45.0,29.91,WNW,286,4.0,19.0,58,0.00,,,0.00,Weather View 32 v70,2013-06-10 16:49:00,
2013-06-10 09:54:00,59.6,44.8,29.91,WSW,241,10.0,19.0,58,0.00,,,0.00,Weather View 32 v70,2013-06-10 16:54:00,
2013-06-10 10:00:00,59.8,45.0,29.91,West,275,12.0,19.0,58,0.00,,,0.00,Weather View 32 v70,2013-06-10 17:00:00,
2013-06-10 10:05:00,59.5,44.7,29.91,West,265,7.0,19.0,58,0.00,,,0.00,Weather View 32 v70,2013-06-10 17:05:00,
2013-06-10 10:10:00,59.6,44.8,29.90,North,0,3.0,19.0,58,0.00,,,0.00,Weather View 32 v70,2013-06-10 17:10:00,
2013-06-10 10:15:00,59.9,44.6,29.90,West,275,12.0,19.0,57,0.00,,,0.00,Weather View 32 v70,2013-06-10 17:15:00,
2013-06-10 10:19:00,60.2,45.3,29.90,NW,315,12.0,19.0,58,0.00,,,0.00,Weather View 32 v70,2013-06-10 17:19:00,
2013-06-10 10:25:00,60.9,45.1,29.90,WNW,296,3.0,19.0,56,0.00,,,0.00,Weather View 32 v70,2013-06-10 17:25:00,
2013-06-10 10:29:00,61.3,45.4,29.90,NW,323,6.0,19.0,56,0.00,,,0.00,Weather View 32 v70,2013-06-10 17:29:00,
2013-06-10 10:34:00,61.6,45.2,29.90,WSW,257,5.0,18.0,55,0.00,,,0.00,Weather View 32 v70,2013-06-10 17:34:00,
2013-06-10 10:39:00,61.6,44.8,29.89,WNW,303,8.0,18.0,54,0.00,,,0.00,Weather View 32 v70,2013-06-10 17:39:00,
2013-06-10 10:44:00,61.6,44.3,29.89,WNW,294,9.0,18.0,53,0.00,,,0.00,Weather View 32 v70,2013-06-10 17:44:00,
2013-06-10 10:50:00,61.5,44.7,29.89,West,269,2.0,18.0,54,0.00,,,0.00,Weather View 32 v70,2013-06-10 17:50:00,
2013-06-10 10:55:00,62.1,45.2,29.89,WNW,300,9.0,18.0,54,0.00,,,0.00,Weather View 32 v70,2013-06-10 17:55:00,
2013-06-10 11:00:00,62.0,45.1,29.89,WNW,296,4.0,18.0,54,0.00,,,0.00,Weather View 32 v70,2013-06-10 18:00:00,
2013-06-10 11:05:00,62.3,44.9,29.89,WNW,298,5.0,18.0,53,0.00,,,0.00,Weather View 32 v70,2013-06-10 18:05:00,
2013-06-10 11:10:00,62.3,44.9,29.89,WNW,295,6.0,18.0,53,0.00,,,0.00,Weather View 32 v70,2013-06-10 18:10:00,
2013-06-10 11:15:00,62.6,44.7,29.89,WSW,251,4.0,18.0,52,0.00,,,0.00,Weather View 32 v70,2013-06-10 18:15:00,
2013-06-10 11:20:00,63.1,44.1,29.89,West,271,5.0,18.0,50,0.00,,,0.00,Weather View 32 v70,2013-06-10 18:20:00,
2013-06-10 11:25:00,63.2,44.7,29.89,West,277,6.0,18.0,51,0.00,,,0.00,Weather View 32 v70,2013-06-10 18:25:00,
2013-06-10 11:30:00,63.1,44.1,29.88,WSW,250,10.0,18.0,50,0.00,,,0.00,Weather View 32 v70,2013-06-10 18:30:00,
2013-06-10 11:35:00,63.1,45.1,29.88,WNW,296,5.0,18.0,52,0.00,,,0.00,Weather View 32 v70,2013-06-10 18:35:00,
2013-06-10 11:40:00,63.5,45.0,29.88,WNW,282,5.0,18.0,51,0.00,,,0.00,Weather View 32 v70,2013-06-10 18:40:00,
2013-06-10 11:45:00,64.0,45.5,29.88,West,271,13.0,18.0,51,0.00,,,0.00,Weather View 32 v70,2013-06-10 18:45:00,
2013-06-10 11:50:00,63.9,44.8,29.88,West,270,9.0,21.0,50,0.00,,,0.00,Weather View 32 v70,2013-06-10 18:50:00,
2013-06-10 11:55:00,64.3,45.2,29.88,SW,221,12.0,21.0,50,0.00,,,0.00,Weather View 32 v70,2013-06-10 18:55:00,
2013-06-10 12:00:00,64.5,44.3,29.88,WNW,293,6.0,21.0,48,0.00,,,0.00,Weather View 32 v70,2013-06-10 19:00:00,
2013-06-10 12:05:00,64.2,44.0,29.87,SW,223,10.0,21.0,48,0.00,,,0.00,Weather View 32 v70,2013-06-10 19:05:00,
2013-06-10 12:10:00,64.5,44.9,29.87,West,278,12.0,21.0,49,0.00,,,0.00,Weather View 32 v70,2013-06-10 19:10:00,
2013-06-10 12:15:00,64.5,44.3,29.87,NW,304,3.0,21.0,48,0.00,,,0.00,Weather View 32 v70,2013-06-10 19:15:00,
2013-06-10 12:20:00,64.7,44.0,29.87,West,276,6.0,21.0,47,0.00,,,0.00,Weather View 32 v70,2013-06-10 19:20:00,
2013-06-10 12:25:00,65.5,44.1,29.87,WSW,247,8.0,21.0,46,0.00,,,0.00,Weather View 32 v70,2013-06-10 19:25:00,
2013-06-10 12:30:00,65.5,43.5,29.86,West,280,17.0,21.0,45,0.00,,,0.00,Weather View 32 v70,2013-06-10 19:30:00,
2013-06-10 12:34:00,65.6,44.2,29.87,NW,304,8.0,21.0,46,0.00,,,0.00,Weather View 32 v70,2013-06-10 19:34:00,
2013-06-10 12:39:00,65.8,43.8,29.87,WNW,295,5.0,21.0,45,0.00,,,0.00,Weather View 32 v70,2013-06-10 19:39:00,
2013-06-10 12:45:00,66.0,43.4,29.86,WNW,291,7.0,21.0,44,0.00,,,0.00,Weather View 32 v70,2013-06-10 19:45:00,
2013-06-10 12:51:00,66.1,44.1,29.86,West,263,10.0,20.0,45,0.00,,,0.00,Weather View 32 v70,2013-06-10 19:51:00,
2013-06-10 12:56:00,66.3,43.7,29.86,NW,310,4.0,20.0,44,0.00,,,0.00,Weather View 32 v70,2013-06-10 19:56:00,
2013-06-10 13:01:00,66.3,43.7,29.85,West,271,3.0,20.0,44,0.00,,,0.00,Weather View 32 v70,2013-06-10 20:01:00,
2013-06-10 13:06:00,66.6,44.5,29.85,West,270,6.0,20.0,45,0.00,,,0.00,Weather View 32 v70,2013-06-10 20:06:00,
2013-06-10 13:12:00,66.4,43.2,29.85,West,280,3.0,21.0,43,0.00,,,0.00,Weather View 32 v70,2013-06-10 20:12:00,
2013-06-10 13:17:00,66.9,46.0,29.84,West,267,4.0,21.0,47,0.00,,,0.00,Weather View 32 v70,2013-06-10 20:17:00,
2013-06-10 13:22:00,67.1,44.4,29.85,NW,325,12.0,21.0,44,0.00,,,0.00,Weather View 32 v70,2013-06-10 20:22:00,
2013-06-10 13:27:00,66.9,44.2,29.85,NW,305,11.0,21.0,44,0.00,,,0.00,Weather View 32 v70,2013-06-10 20:27:00,
2013-06-10 13:32:00,66.9,43.6,29.84,WNW,292,4.0,21.0,43,0.00,,,0.00,Weather View 32 v70,2013-06-10 20:32:00,
2013-06-10 13:37:00,67.4,44.1,29.85,NW,311,13.0,21.0,43,0.00,,,0.00,Weather View 32 v70,2013-06-10 20:37:00,
2013-06-10 13:42:00,67.3,43.4,29.85,West,265,7.0,21.0,42,0.00,,,0.00,Weather View 32 v70,2013-06-10 20:42:00,
2013-06-10 13:47:00,67.4,42.8,29.84,WSW,250,2.0,23.0,41,0.00,,,0.00,Weather View 32 v70,2013-06-10 20:47:00,
2013-06-10 13:52:00,67.8,42.5,29.84,SW,232,5.0,23.0,40,0.00,,,0.00,Weather View 32 v70,2013-06-10 20:52:00,
2013-06-10 13:57:00,67.9,42.0,29.84,NW,317,6.0,23.0,39,0.00,,,0.00,Weather View 32 v70,2013-06-10 20:57:00,
2013-06-10 14:02:00,68.3,42.3,29.84,WNW,293,9.0,23.0,39,0.00,,,0.00,Weather View 32 v70,2013-06-10 21:02:00,
2013-06-10 14:07:00,68.4,42.4,29.84,WSW,248,8.0,23.0,39,0.00,,,0.00,Weather View 32 v70,2013-06-10 21:07:00,
2013-06-10 14:12:00,68.6,42.6,29.83,WNW,285,4.0,23.0,39,0.00,,,0.00,Weather View 32 v70,2013-06-10 21:12:00,
2013-06-10 14:17:00,68.6,43.3,29.83,NW,304,7.0,23.0,40,0.00,,,0.00,Weather View 32 v70,2013-06-10 21:17:00,
2013-06-10 14:22:00,69.1,43.0,29.83,WNW,300,6.0,23.0,39,0.00,,,0.00,Weather View 32 v70,2013-06-10 21:22:00,
2013-06-10 14:27:00,69.3,44.5,29.83,WNW,300,13.0,23.0,41,0.00,,,0.00,Weather View 32 v70,2013-06-10 21:27:00,
2013-06-10 14:32:00,69.3,43.2,29.83,WNW,288,5.0,23.0,39,0.00,,,0.00,Weather View 32 v70,2013-06-10 21:32:00,
2013-06-10 14:37:00,68.8,43.4,29.83,WNW,295,12.0,23.0,40,0.00,,,0.00,Weather View 32 v70,2013-06-10 21:37:00,
2013-06-10 14:42:00,68.4,44.4,29.84,WNW,291,7.0,23.0,42,0.00,,,0.00,Weather View 32 v70,2013-06-10 21:42:00,
2013-06-10 14:47:00,68.9,44.8,29.83,NW,311,10.0,20.0,42,0.00,,,0.00,Weather View 32 v70,2013-06-10 21:47:00,
2013-06-10 14:52:00,68.8,44.1,29.83,NW,304,10.0,20.0,41,0.00,,,0.00,Weather View 32 v70,2013-06-10 21:52:00,
2013-06-10 14:57:00,69.3,44.5,29.84,West,277,7.0,20.0,41,0.00,,,0.00,Weather View 32 v70,2013-06-10 21:57:00,
2013-06-10 15:02:00,69.1,43.7,29.83,NW,315,6.0,23.0,40,0.00,,,0.00,Weather View 32 v70,2013-06-10 22:02:00,
2013-06-10 15:07:00,69.4,44.0,29.83,NW,306,9.0,23.0,40,0.00,,,0.00,Weather View 32 v70,2013-06-10 22:07:00,
2013-06-10 15:12:00,69.8,45.0,29.83,NW,323,12.0,23.0,41,0.00,,,0.00,Weather View 32 v70,2013-06-10 22:12:00,
2013-06-10 15:17:00,69.6,44.8,29.83,WSW,252,4.0,23.0,41,0.00,,,0.00,Weather View 32 v70,2013-06-10 22:17:00,
2013-06-10 15:22:00,69.6,43.5,29.83,WNW,296,5.0,23.0,39,0.00,,,0.00,Weather View 32 v70,2013-06-10 22:22:00,
2013-06-10 15:27:00,70.1,43.2,29.82,WNW,292,8.0,23.0,38,0.00,,,0.00,Weather View 32 v70,2013-06-10 22:27:00,
2013-06-10 15:32:00,70.3,44.1,29.82,West,274,3.0,23.0,39,0.00,,,0.00,Weather View 32 v70,2013-06-10 22:32:00,
2013-06-10 15:37:00,70.4,43.5,29.82,NW,306,5.0,23.0,38,0.00,,,0.00,Weather View 32 v70,2013-06-10 22:37:00,
2013-06-10 15:42:00,70.3,42.0,29.82,West,270,9.0,23.0,36,0.00,,,0.00,Weather View 32 v70,2013-06-10 22:42:00,
2013-06-10 15:47:00,70.4,43.5,29.82,NW,304,13.0,23.0,38,0.00,,,0.00,Weather View 32 v70,2013-06-10 22:47:00,
2013-06-10 15:52:00,70.6,44.4,29.82,WNW,292,21.0,23.0,39,0.00,,,0.00,Weather View 32 v70,2013-06-10 22:52:00,
2013-06-10 15:57:00,70.4,43.5,29.82,West,281,1.0,23.0,38,0.00,,,0.00,Weather View 32 v70,2013-06-10 22:57:00,
2013-06-10 16:02:00,70.3,42.0,29.82,West,265,8.0,22.0,36,0.00,,,0.00,Weather View 32 v70,2013-06-10 23:02:00,
2013-06-10 16:07:00,70.3,44.1,29.82,West,276,5.0,22.0,39,0.00,,,0.00,Weather View 32 v70,2013-06-10 23:07:00,
2013-06-10 16:12:00,70.1,43.9,29.82,WNW,302,9.0,22.0,39,0.00,,,0.00,Weather View 32 v70,2013-06-10 23:12:00,
2013-06-10 16:17:00,70.3,44.8,29.82,NW,305,15.0,22.0,40,0.00,,,0.00,Weather View 32 v70,2013-06-10 23:17:00,
2013-06-10 16:22:00,70.1,43.2,29.82,NW,307,16.0,23.0,38,0.00,,,0.00,Weather View 32 v70,2013-06-10 23:22:00,
2013-06-10 16:27:00,69.8,45.0,29.82,West,266,4.0,23.0,41,0.00,,,0.00,Weather View 32 v70,2013-06-10 23:27:00,
2013-06-10 16:32:00,69.3,45.2,29.82,NW,309,11.0,23.0,42,0.00,,,0.00,Weather View 32 v70,2013-06-10 23:32:00,
2013-06-10 16:37:00,69.4,45.3,29.82,West,273,13.0,23.0,42,0.00,,,0.00,Weather View 32 v70,2013-06-10 23:37:00,
2013-06-10 16:42:00,69.3,45.8,29.82,WSW,249,19.0,23.0,43,0.00,,,0.00,Weather View 32 v70,2013-06-10 23:42:00,
2013-06-10 16:47:00,69.3,46.4,29.82,WSW,254,5.0,23.0,44,0.00,,,0.00,Weather View 32 v70,2013-06-10 23:47:00,
2013-06-10 16:52:00,69.3,45.8,29.82,SSW,205,10.0,23.0,43,0.00,,,0.00,Weather View 32 v70,2013-06-10 23:52:00,
2013-06-10 16:57:00,68.9,46.0,29.82,WNW,284,5.0,23.0,44,0.00,,,0.00,Weather View 32 v70,2013-06-10 23:57:00,
2013-06-10 17:02:00,68.9,46.0,29.82,WNW,300,14.0,23.0,44,0.00,,,0.00,Weather View 32 v70,2013-06-11 00:02:00,
2013-06-10 17:07:00,68.9,45.4,29.82,West,261,11.0,23.0,43,0.00,,,0.00,Weather View 32 v70,2013-06-11 00:07:00,
2013-06-10 17:12:00,69.1,45.6,29.82,WSW,250,17.0,23.0,43,0.00,,,0.00,Weather View 32 v70,2013-06-11 00:12:00,
2013-06-10 17:17:00,69.1,45.0,29.81,WSW,250,7.0,23.0,42,0.00,,,0.00,Weather View 32 v70,2013-06-11 00:17:00,
2013-06-10 17:22:00,69.4,45.9,29.81,NW,310,14.0,23.0,43,0.00,,,0.00,Weather View 32 v70,2013-06-11 00:22:00,
2013-06-10 17:27:00,69.3,44.5,29.81,West,262,16.0,23.0,41,0.00,,,0.00,Weather View 32 v70,2013-06-11 00:27:00,
2013-06-10 17:32:00,68.9,44.8,29.81,West,267,10.0,22.0,42,0.00,,,0.00,Weather View 32 v70,2013-06-11 00:32:00,
2013-06-10 17:37:00,68.9,44.8,29.81,West,267,14.0,22.0,42,0.00,,,0.00,Weather View 32 v70,2013-06-11 00:37:00,
2013-06-10 17:42:00,69.3,44.5,29.81,SW,220,10.0,22.0,41,0.00,,,0.00,Weather View 32 v70,2013-06-11 00:42:00,
2013-06-10 17:47:00,69.3,44.5,29.81,NNW,327,7.0,22.0,41,0.00,,,0.00,Weather View 32 v70,2013-06-11 00:47:00,
2013-06-10 17:52:00,69.3,43.9,29.81,WNW,300,2.0,22.0,40,0.00,,,0.00,Weather View 32 v70,2013-06-11 00:52:00,
2013-06-10 17:57:00,69.1,44.3,29.81,NW,312,15.0,21.0,41,0.00,,,0.00,Weather View 32 v70,2013-06-11 00:57:00,
2013-06-10 18:02:00,68.8,43.4,29.81,NW,306,6.0,21.0,40,0.00,,,0.00,Weather View 32 v70,2013-06-11 01:02:00,
2013-06-10 18:07:00,68.9,44.2,29.81,WNW,296,5.0,21.0,41,0.00,,,0.00,Weather View 32 v70,2013-06-11 01:07:00,
2013-06-10 18:12:00,68.9,44.2,29.81,WNW,284,11.0,21.0,41,0.00,,,0.00,Weather View 32 v70,2013-06-11 01:12:00,
2013-06-10 18:17:00,68.8,44.1,29.81,WNW,294,14.0,21.0,41,0.00,,,0.00,Weather View 32 v70,2013-06-11 01:17:00,
2013-06-10 18:22:00,68.6,43.9,29.81,WNW,293,8.0,23.0,41,0.00,,,0.00,Weather View 32 v70,2013-06-11 01:22:00,
2013-06-10 18:27:00,68.4,44.4,29.82,West,276,13.0,23.0,42,0.00,,,0.00,Weather View 32 v70,2013-06-11 01:27:00,
2013-06-10 18:32:00,68.3,44.3,29.82,WSW,245,12.0,23.0,42,0.00,,,0.00,Weather View 32 v70,2013-06-11 01:32:00,
2013-06-10 18:37:00,68.3,44.3,29.82,WNW,286,4.0,23.0,42,0.00,,,0.00,Weather View 32 v70,2013-06-11 01:37:00,
2013-06-10 18:42:00,68.1,44.7,29.82,West,263,12.0,23.0,43,0.00,,,0.00,Weather View 32 v70,2013-06-11 01:42:00,
2013-06-10 18:47:00,67.9,43.9,29.82,West,274,7.0,23.0,42,0.00,,,0.00,Weather View 32 v70,2013-06-11 01:47:00,
2013-06-10 18:52:00,68.1,44.7,29.82,NW,311,12.0,23.0,43,0.00,,,0.00,Weather View 32 v70,2013-06-11 01:52:00,
2013-06-10 18:57:00,67.8,44.4,29.82,WSW,257,6.0,23.0,43,0.00,,,0.00,Weather View 32 v70,2013-06-11 01:57:00,
2013-06-10 19:02:00,67.6,44.2,29.82,WSW,257,5.0,23.0,43,0.00,,,0.00,Weather View 32 v70,2013-06-11 02:02:00,
2013-06-10 19:07:00,67.6,44.9,29.82,WSW,243,3.0,23.0,44,0.00,,,0.00,Weather View 32 v70,2013-06-11 02:07:00,
2013-06-10 19:12:00,67.4,44.1,29.82,WNW,283,18.0,23.0,43,0.00,,,0.00,Weather View 32 v70,2013-06-11 02:12:00,
2013-06-10 19:17:00,67.3,44.0,29.82,WNW,283,8.0,23.0,43,0.00,,,0.00,Weather View 32 v70,2013-06-11 02:17:00,
2013-06-10 19:22:00,67.1,43.8,29.82,West,265,5.0,22.0,43,0.00,,,0.00,Weather View 32 v70,2013-06-11 02:22:00,
2013-06-10 19:27:00,66.8,43.5,29.82,West,265,10.0,22.0,43,0.00,,,0.00,Weather View 32 v70,2013-06-11 02:27:00,
2013-06-10 19:32:00,66.9,44.2,29.83,WSW,256,7.0,22.0,44,0.00,,,0.00,Weather View 32 v70,2013-06-11 02:32:00,
2013-06-10 19:37:00,66.6,43.3,29.83,West,271,7.0,22.0,43,0.00,,,0.00,Weather View 32 v70,2013-06-11 02:37:00,
2013-06-10 19:42:00,66.6,43.3,29.83,West,271,3.0,21.0,43,0.00,,,0.00,Weather View 32 v70,2013-06-11 02:42:00,
2013-06-10 19:47:00,66.4,43.2,29.83,West,277,6.0,21.0,43,0.00,,,0.00,Weather View 32 v70,2013-06-11 02:47:00,
2013-06-10 19:52:00,66.3,43.7,29.83,WNW,290,5.0,21.0,44,0.00,,,0.00,Weather View 32 v70,2013-06-11 02:52:00,
2013-06-10 19:57:00,66.0,43.4,29.83,WNW,294,3.0,21.0,44,0.00,,,0.00,Weather View 32 v70,2013-06-11 02:57:00,
2013-06-10 20:02:00,65.8,43.2,29.83,West,269,4.0,21.0,44,0.00,,,0.00,Weather View 32 v70,2013-06-11 03:02:00,
2013-06-10 20:07:00,65.5,43.0,29.84,WNW,286,5.0,21.0,44,0.00,,,0.00,Weather View 32 v70,2013-06-11 03:07:00,
2013-06-10 20:12:00,65.3,43.4,29.84,West,281,4.0,20.0,45,0.00,,,0.00,Weather View 32 v70,2013-06-11 03:12:00,
2013-06-10 20:17:00,65.2,43.8,29.84,WSW,253,7.0,20.0,46,0.00,,,0.00,Weather View 32 v70,2013-06-11 03:17:00,
2013-06-10 20:22:00,64.8,43.5,29.85,WNW,300,1.0,20.0,46,0.00,,,0.00,Weather View 32 v70,2013-06-11 03:22:00,
2013-06-10 20:27:00,64.7,43.4,29.85,WSW,241,3.0,20.0,46,0.00,,,0.00,Weather View 32 v70,2013-06-11 03:27:00,
2013-06-10 20:32:00,64.3,43.6,29.85,WNW,293,3.0,15.0,47,0.00,,,0.00,Weather View 32 v70,2013-06-11 03:32:00,
2013-06-10 20:37:00,63.9,43.8,29.85,West,271,0.0,15.0,48,0.00,,,0.00,Weather View 32 v70,2013-06-11 03:37:00,
2013-06-10 20:42:00,63.7,43.6,29.86,WNW,286,1.0,15.0,48,0.00,,,0.00,Weather View 32 v70,2013-06-11 03:42:00,
2013-06-10 20:47:00,63.4,43.9,29.86,WSW,246,5.0,15.0,49,0.00,,,0.00,Weather View 32 v70,2013-06-11 03:47:00,
2013-06-10 20:52:00,63.2,43.7,29.86,WSW,247,2.0,15.0,49,0.00,,,0.00,Weather View 32 v70,2013-06-11 03:52:00,
2013-06-10 20:57:00,63.1,44.1,29.86,West,273,3.0,15.0,50,0.00,,,0.00,Weather View 32 v70,2013-06-11 03:57:00,
2013-06-10 21:01:00,62.9,44.5,29.86,WSW,257,5.0,15.0,51,0.00,,,0.00,Weather View 32 v70,2013-06-11 04:01:00,
2013-06-10 21:06:00,62.9,43.9,29.86,WSW,253,4.0,13.0,50,0.00,,,0.00,Weather View 32 v70,2013-06-11 04:06:00,
2013-06-10 21:11:00,62.7,43.7,29.87,WNW,288,2.0,13.0,50,0.00,,,0.00,Weather View 32 v70,2013-06-11 04:11:00,
2013-06-10 21:16:00,62.6,43.7,29.87,West,273,4.0,12.0,50,0.00,,,0.00,Weather View 32 v70,2013-06-11 04:16:00,
2013-06-10 21:21:00,62.4,44.0,29.87,WSW,253,4.0,12.0,51,0.00,,,0.00,Weather View 32 v70,2013-06-11 04:21:00,
2013-06-10 21:26:00,62.3,43.9,29.87,WNW,292,0.0,12.0,51,0.00,,,0.00,Weather View 32 v70,2013-06-11 04:26:00,
2013-06-10 21:31:00,62.1,44.2,29.87,West,274,2.0,12.0,52,0.00,,,0.00,Weather View 32 v70,2013-06-11 04:31:00,
2013-06-10 21:36:00,62.0,44.1,29.88,West,261,12.0,16.0,52,0.00,,,0.00,Weather View 32 v70,2013-06-11 04:36:00,
2013-06-10 21:41:00,62.0,44.6,29.88,West,273,2.0,16.0,53,0.00,,,0.00,Weather View 32 v70,2013-06-11 04:41:00,
2013-06-10 21:46:00,61.8,44.4,29.88,West,277,6.0,16.0,53,0.00,,,0.00,Weather View 32 v70,2013-06-11 04:46:00,
2013-06-10 21:51:00,61.6,44.8,29.88,West,261,1.0,16.0,54,0.00,,,0.00,Weather View 32 v70,2013-06-11 04:51:00,
2013-06-10 21:56:00,61.5,44.7,29.88,West,267,1.0,16.0,54,0.00,,,0.00,Weather View 32 v70,2013-06-11 04:56:00,
2013-06-10 22:01:00,61.3,45.0,29.88,West,267,7.0,16.0,55,0.00,,,0.00,Weather View 32 v70,2013-06-11 05:01:00,
2013-06-10 22:06:00,61.2,44.9,29.89,WNW,290,2.0,16.0,55,0.00,,,0.00,Weather View 32 v70,2013-06-11 05:06:00,
2013-06-10 22:11:00,60.9,45.1,29.89,WNW,290,1.0,16.0,56,0.00,,,0.00,Weather View 32 v70,2013-06-11 05:11:00,
2013-06-10 22:16:00,60.7,44.9,29.89,WNW,301,4.0,16.0,56,0.00,,,0.00,Weather View 32 v70,2013-06-11 05:16:00,
2013-06-10 22:21:00,60.5,45.2,29.89,WNW,287,1.0,16.0,57,0.00,,,0.00,Weather View 32 v70,2013-06-11 05:21:00,
2013-06-10 22:25:00,60.4,45.5,29.89,West,281,3.0,16.0,58,0.00,,,0.00,Weather View 32 v70,2013-06-11 05:25:00,
2013-06-10 22:31:00,60.2,45.3,29.89,West,281,0.0,16.0,58,0.00,,,0.00,Weather View 32 v70,2013-06-11 05:31:00,
2013-06-10 22:36:00,60.1,45.2,29.89,West,276,2.0,16.0,58,0.00,,,0.00,Weather View 32 v70,2013-06-11 05:36:00,
2013-06-10 22:41:00,59.9,45.5,29.90,West,277,3.0,15.0,59,0.00,,,0.00,Weather View 32 v70,2013-06-11 05:41:00,
2013-06-10 22:46:00,59.8,45.4,29.89,West,278,1.0,15.0,59,0.00,,,0.00,Weather View 32 v70,2013-06-11 05:46:00,
2013-06-10 22:51:00,59.6,45.7,29.89,West,259,1.0,13.0,60,0.00,,,0.00,Weather View 32 v70,2013-06-11 05:51:00,
2013-06-10 22:56:00,59.3,45.4,29.89,West,265,7.0,13.0,60,0.00,,,0.00,Weather View 32 v70,2013-06-11 05:56:00,
2013-06-10 23:01:00,59.2,45.3,29.89,West,276,2.0,13.0,60,0.00,,,0.00,Weather View 32 v70,2013-06-11 06:01:00,
2013-06-10 23:06:00,59.0,45.1,29.89,SW,234,1.0,13.0,60,0.00,,,0.00,Weather View 32 v70,2013-06-11 06:06:00,
2013-06-10 23:11:00,58.9,45.4,29.89,WSW,257,8.0,13.0,61,0.00,,,0.00,Weather View 32 v70,2013-06-11 06:11:00,
2013-06-10 23:16:00,58.7,45.3,29.89,SW,214,2.0,13.0,61,0.00,,,0.00,Weather View 32 v70,2013-06-11 06:16:00,
2013-06-10 23:21:00,58.6,45.6,29.89,West,270,4.0,14.0,62,0.00,,,0.00,Weather View 32 v70,2013-06-11 06:21:00,
2013-06-10 23:26:00,58.4,45.4,29.89,West,267,2.0,14.0,62,0.00,,,0.00,Weather View 32 v70,2013-06-11 06:26:00,
2013-06-10 23:31:00,58.3,45.3,29.90,South,175,3.0,14.0,62,0.00,,,0.00,Weather View 32 v70,2013-06-11 06:31:00,
2013-06-10 23:36:00,58.1,45.1,29.90,West,273,6.0,16.0,62,0.00,,,0.00,Weather View 32 v70,2013-06-11 06:36:00,
2013-06-10 23:41:00,58.0,45.0,29.90,WSW,250,5.0,17.0,62,0.00,,,0.00,Weather View 32 v70,2013-06-11 06:41:00,
2013-06-10 23:46:00,57.8,45.3,29.90,WSW,254,3.0,17.0,63,0.00,,,0.00,Weather View 32 v70,2013-06-11 06:46:00,
2013-06-10 23:51:00,57.6,45.1,29.90,WSW,246,7.0,17.0,63,0.00,,,0.00,Weather View 32 v70,2013-06-11 06:51:00,
2013-06-10 23:56:00,57.5,45.0,29.90,SSW,207,3.0,17.0,63,0.00,,,0.00,Weather View 32 v70,2013-06-11 06:56:00,